[Iaude] MPEC Q81: 2015 GY53 [a=12.11,e=0.08,i=24.1,H=13.6]

mpec at mpcdb1.cfa.harvard.edu mpec at mpcdb1.cfa.harvard.edu
Wed Aug 29 14:09:18 EDT 2018


M.P.E.C. 2018-Q81                                Issued 2018 Aug. 29, 18:05 UT
 
     The Minor Planet Electronic Circulars contain information on unusual
         minor planets and routine data on comets.  They are published
    on behalf of Division F of the International Astronomical Union by the
          Minor Planet Center, Smithsonian Astrophysical Observatory,
                          Cambridge, MA 02138, U.S.A.

             Prepared using the Tamkin Foundation Computer Network

                              MPC at CFA.HARVARD.EDU
            URL https://www.minorplanetcenter.net/    ISSN 1523-6714


                                   2015 GY53
 
Observations:
     K15G53Y @C2015 02 17.50210 13 33 01.807-09 47 06.50         24.4 rqEQ081568
     K15G53Y @C2015 02 17.54344 13 33 01.596-09 47 03.87         24.7 rqEQ081568
     K15G53Y @C2015 02 20.47426 13 32 46.755-09 43 42.99         24.3 rqEQ081568
     K15G53Y @C2015 03 18.46248 13 28 57.176-09 03 57.35         24.2 rqEQ081568
     K15G53Y @C2015 03 18.51370 13 28 56.551-09 03 51.80         23.9 rqEQ081568
     K15G53Y @C2015 03 20.51543 13 28 32.877-09 00 10.65         24.4 rqEQ081568
     K15G53Y @C2015 04 11.39801 13 23 44.593-08 16 48.77         24.1 rqEQ081568
     K15G53Y*@C2015 04 12.35069 13 23 31.438-08 14 51.64         24.1 rqEQ081568
     K15G53Y @C2015 04 12.39167 13 23 30.844-08 14 46.58         23.9 rqEQ081568
     K15G53Y @C2015 04 12.43732 13 23 30.244-08 14 41.13         24.5 rqEQ081568
     K15G53Y @C2015 04 16.38638 13 22 35.667-08 06 35.81         24.0 rqEQ081568
     K15G53Y @C2015 04 18.40224 13 22 07.943-08 02 28.97         24.4 rqEQ081568
     K15G53Y @C2015 04 18.45015 13 22 07.256-08 02 23.15         24.1 rqEQ081568
     K15G53Y @C2016 02 04.63948 14 08 49.354-09 26 42.58         25.0 wqEQ081568
     K15G53Y @C2016 02 11.61799 14 08 57.666-09 21 04.60         24.9 wqEQ081568
     K15G53Y @C2016 03 11.62115 14 06 50.769-08 43 30.77         24.4 wqEQ081568
     K15G53Y @C2016 03 12.49372 14 06 43.322-08 42 04.55         25.0 wqEQ081568
     K15G53Y @C2016 04 03.48981 14 02 42.452-08 02 14.20         24.5 wqEQ081568
     K15G53Y @C2016 04 09.47097 14 01 24.076-07 50 39.17         24.8 wqEQ081568
     K15G53Y @C2016 04 13.45587 14 00 30.203-07 42 53.88         24.4 wqEQ081568
     K15G53Y @C2016 04 14.35804 14 00 17.888-07 41 08.66         24.4 wqEQ081568
 
Observer details:
568 Mauna Kea.  Observers M. T. Bannister, J. J. Kavelaars, B. J. Gladman,
    J.-M. Petit, T. Burdullis.  Measurers S. D. J. Gwyn, Y.-T. Chen,
    M. Alexandersen.  3.6-m Canada-France-Hawaii Telescope + CCD.
 
Orbital elements:
2015 GY53
Epoch 2018 Mar. 23.0 TT = JDT 2458200.5                 MPC
M 106.72705              (2000.0)            P               Q
n   0.02340094     Peri.  270.31279     -0.33691115     -0.92978813
a  12.1054398      Node   201.31225     +0.94081897     -0.33860039
e   0.0808479      Incl.   24.07672     -0.03674959     -0.14437382
P  42.12           H   13.6           G   0.15           U   3
Residuals in seconds of arc
150217 568  0.0   0.0     150412 568  0.1-  0.0     160211 568  0.0   0.0
150217 568  0.1-  0.0     150412 568  0.3-  0.1+    160311 568  0.0   0.2-
150220 568  0.1+  0.0     150412 568  0.3+  0.1-    160312 568  0.0   0.0
150318 568  0.1+  0.0     150416 568  0.0   0.0     160403 568  0.1-  0.0
150318 568  0.0   0.1-    150418 568  0.2+  0.0     160409 568  0.2-  0.0
150320 568  0.0   0.0     150418 568  0.0   0.0     160413 568  0.2+  0.1+
150411 568  0.2-  0.1+    160204 568  0.0   0.1+    160414 568  0.1+  0.0

Ephemeris:
2015 GY53                a,e,i = 12.11, 0.08, 24                 q = 11.127
Date    TT    R. A. (2000) Decl.     Delta      r     Elong.  Phase     V
2018 07 30    14 55 35.6 -04 52 44  12.3518 12.5030    96.2     4.6    24.9
...
2018 08 14    14 56 43.9 -05 04 24  12.6005 12.5083    82.5     4.6    25.0
...
2018 08 22    14 57 46.8 -05 12 23  12.7307 12.5111    75.2     4.5    25.0
...
2018 08 28    14 58 45.4 -05 19 00  12.8256 12.5132    69.8     4.3    25.0
2018 08 29    14 58 56.1 -05 20 09  12.8411 12.5135    68.9     4.3    25.0
2018 08 30    14 59 07.0 -05 21 19  12.8565 12.5139    68.0     4.3    25.0
...
2018 09 05    15 00 18.0 -05 28 33  12.9468 12.5160    62.7     4.1    25.0
...
2018 09 13    15 02 06.2 -05 38 43  13.0602 12.5187    55.6     3.8    25.0
...
2018 09 28    15 06 06.4 -05 58 46  13.2454 12.5239    42.4     3.1    25.0

A. U. Tomatic                (C) Copyright 2018 MPC           M.P.E.C. 2018-Q81



More information about the Iaude mailing list